Meteopurmerend
purmerend
Purmerend - Baaienwijk



My webcam  My webcam


Onweer radar Meer informatie blitzortung!


Regen radar Meer informatie rain snow radar


Bezoek onze andere website:

CandyAppleRed WebdesignWebdesign Purmerend Candy Apple Red

MeteopurmerendBlog

Template documentation
and downloads



Het weer levert geen direct gevaar op.    Er zijn geen waarschuwingen afgegeven.

15 daagse weersverwachting Graz (AT)

  • Overzicht
  • Per uur
  • 15 dagen
  • Extra
  • Vergelijk
  • Kaarten
  • Dagkaart
  • Meer »
  • Info
  • Statistieken
  • Directe link
    Temp 6h Neerslag Wind  
 05:12     20:39    Daglengte: 15:27 Vandaag
08:00
15°
 
1
14:00
19°
 
2
20:00
20°
 
1
 05:11     20:41    Daglengte: 15:30 Morgen
02:00
15°
 
1
08:00
18°
 
1
14:00
25°
 
3
20:00
22°
0.8 mm
1
 05:10     20:42    Daglengte: 15:32 Zaterdag 28 Mei
02:00
16°
 
2
08:00
14°
2.3 mm
3
14:00
13°
10.5 mm
3
20:00
12°
5.3 mm
1
 05:10     20:43    Daglengte: 15:33 Zondag 29 Mei
02:00
11°
5.0 mm
2
Locatie info
Region: Steiermark
Latitude: 47.0686°N
Longitude: 15.4433°E
363 masl
Postcode: 8010
Temp/Neerslag /Baro Onweer/Dauwpunt
    Temp Baro 1h Neerslag Dauwpunt Wind UV Bewolking  
 05:12     20:39    Daglengte: 15:27 Vandaag
08:00
15°
1023.1 hPa
14%
10.2°
1
Windvlaag: -0.3 m/s
82%
09:00
16°
1023.1 hPa
14%
9.0°
1
Windvlaag: 1.4 m/s
70%
10:00
17°
1023.4 hPa
14%
9.1°
2
Windvlaag: 3.5 m/s
69%
11:00
18°
1023.4 hPa
17%
8.3°
2
Windvlaag: 4.4 m/s
62%
12:00
19°
1023.5 hPa
18%
7.0°
2
Windvlaag: 5.1 m/s
60%
13:00
19°
1023.2 hPa
15%
5.8°
2
Windvlaag: 5.2 m/s
67%
14:00
19°
1022.8 hPa
14%
5.7°
2
Windvlaag: 5 m/s
76%
15:00
20°
1022.4 hPa
14%
6.2°
1
Windvlaag: 4.1 m/s
57%
16:00
20°
1021.9 hPa
14%
6.8°
1
Windvlaag: 3.4 m/s
18%
17:00
21°
1021.3 hPa
14%
7.2°
1
Windvlaag: 3 m/s
11%
18:00
21°
1020.8 hPa
14%
8.7°
1
Windvlaag: 2.1 m/s
12%
19:00
21°
1020.7 hPa
14%
8.6°
1
Windvlaag: 1.4 m/s
39%
20:00
20°
1020.9 hPa
14%
10.9°
1
Windvlaag: 0.8 m/s
33%
21:00
19°
1021.2 hPa
14%
14.7°
1
Windvlaag: 0.1 m/s
20%
22:00
18°
1021.6 hPa
14%
14.5°
1
Windvlaag: 0.3 m/s
20%
23:00
17°
1022.0 hPa
14%
13.0°
1
Windvlaag: 0.2 m/s
41%
 05:11     20:41    Daglengte: 15:30 Morgen
00:00
16°
1022.1 hPa
14%
11.9°
1
Windvlaag: 0.5 m/s
15%
01:00
16°
1021.8 hPa
14%
11.1°
1
Windvlaag: 0.6 m/s
39%
02:00
15°
1021.6 hPa
14%
11.2°
1
Windvlaag: 0.3 m/s
38%
03:00
15°
1021.6 hPa
14%
11.1°
2
Windvlaag: 0.2 m/s
50%
04:00
15°
1021.3 hPa
14%
10.7°
2
Windvlaag: -0 m/s
59%
05:00
14°
1021.1 hPa
14%
10.7°
2
Windvlaag: 0.1 m/s
62%
06:00
14°
1021.3 hPa
14%
11.1°
1
Windvlaag: 0.4 m/s
67%
07:00
16°
1021.2 hPa
14%
10.6°
1
Windvlaag: 0.2 m/s
37%
08:00
18°
1020.9 hPa
14%
9.8°
1
Windvlaag: 1.4 m/s
47%
09:00
19°
1020.5 hPa
14%
10.0°
1
Windvlaag: 3.4 m/s
58%
10:00
20°
1020.0 hPa
14%
10.0°
2
Windvlaag: 4.6 m/s
5%
11:00
21°
1019.4 hPa
14%
10.5°
2
Windvlaag: 5.4 m/s
2%
12:00
23°
1018.6 hPa
14%
10.7°
2
Windvlaag: 5.4 m/s
7%
13:00
24°
1017.7 hPa
14%
10.9°
3
Windvlaag: 6.2 m/s
9%
14:00
25°
1016.8 hPa
14%
11.1°
3
Windvlaag: 6.3 m/s
38%
15:00
25°
1016.0 hPa
15%
11.9°
3
Windvlaag: 6.3 m/s
14%
16:00
25°
1015.2 hPa
17%
12.7°
2
Windvlaag: 6.7 m/s
16%
17:00
25°
1014.7 hPa
19%
13.2°
2
Windvlaag: 6.5 m/s
19%
18:00
24°
1014.5 hPa 0.8 mm
71%
17.5°
2
Windvlaag: 5.9 m/s
27%
19:00
23°
1014.4 hPa
75%
18.8°
1
Windvlaag: 3.9 m/s
29%
20:00
22°
1014.4 hPa
66%
18.7°
1
Windvlaag: 3 m/s
58%
21:00
20°
1014.5 hPa
26%
17.7°
1
Windvlaag: 1.6 m/s
32%
22:00
19°
1015.0 hPa
27%
17.1°
2
Windvlaag: -1.7 m/s
30%
23:00
18°
1015.4 hPa
59%
16.3°
2
Windvlaag: -3.7 m/s
41%
 05:10     20:42    Daglengte: 15:32 Zaterdag 28 Mei
00:00
17°
1015.5 hPa
22%
15.6°
2
Windvlaag: -5.1 m/s
39%
01:00
17°
1015.2 hPa
60%
15.1°
2
Windvlaag: -4.7 m/s
30%
02:00
16°
1015.0 hPa
67%
14.1°
2
Windvlaag: -1.9 m/s
36%
03:00
16°
1015.1 hPa
69%
11.9°
2
Windvlaag: -1 m/s
45%
04:00
15°
1015.1 hPa
69%
11.2°
2
Windvlaag: 4.6 m/s
61%
05:00
14°
1014.6 hPa
81%
5.6°
3
Windvlaag: 6.8 m/s
92%
06:00
14°
1014.9 hPa
38%
5.0°
2
Windvlaag: 6.8 m/s
93%
07:00
14°
1015.4 hPa 1.0 mm
84%
4.4°
2
Windvlaag: 6.1 m/s
92%
08:00
14°
1015.6 hPa 1.2 mm
96%
4.2°
3
Windvlaag: 6.4 m/s
85%
09:00
14°
1016.0 hPa 2.3 mm
99%
3.6°
2
Windvlaag: 6.1 m/s
93%
10:00
13°
1016.2 hPa 3.2 mm
96%
2.2°
4
Windvlaag: 7.2 m/s
88%
11:00
12°
1016.5 hPa 1.8 mm
100%
-0.0°
3
Windvlaag: 6.5 m/s
88%
12:00
12°
1016.5 hPa 1.1 mm
100%
-2.2°
3
Windvlaag: 4.7 m/s
86%
13:00
12°
1016.3 hPa 1.2 mm
100%
-2.3°
3
Windvlaag: 4.7 m/s
76%
14:00
13°
1016.1 hPa 1.0 mm
100%
-2.6°
3
Windvlaag: 5.8 m/s
76%
15:00
13°
1015.8 hPa 0.8 mm
100%
-2.5°
3
Windvlaag: 6 m/s
76%
16:00
13°
1015.3 hPa
100%
-2.6°
3
Windvlaag: 5.9 m/s
75%
17:00
14°
1015.1 hPa 1.1 mm
100%
-2.2°
3
Windvlaag: 5.8 m/s
75%
18:00
13°
1015.2 hPa 1.2 mm
100%
-2.1°
2
Windvlaag: 5.7 m/s
69%
19:00
13°
1015.2 hPa 1.2 mm
100%
-0.9°
2
Windvlaag: 5.2 m/s
65%
20:00
12°
1015.7 hPa 1.1 mm
100%
2.0°
1
Windvlaag: 3.9 m/s
60%
21:00
11°
1016.0 hPa 1.0 mm
100%
3.3°
1
Windvlaag: 3.2 m/s
70%
22:00
11°
1015.9 hPa
91%
2.8°
1
Windvlaag: 1.6 m/s
70%
23:00
11°
1015.8 hPa 0.7 mm
93%
3.2°
1
Windvlaag: 1.9 m/s
85%
 05:10     20:43    Daglengte: 15:33 Zondag 29 Mei
00:00
11°
1015.7 hPa 1.2 mm
99%
3.5°
1
Windvlaag: 8.1 m/s
75%
01:00
11°
1015.1 hPa 1.1 mm
100%
2.5°
2
Windvlaag: 7.5 m/s
82%
02:00
11°
1014.5 hPa 1.0 mm
100%
2.1°
2
Windvlaag: 7.3 m/s
78%
03:00
11°
1013.9 hPa
100%
1.7°
2
Windvlaag: 7.1 m/s
83%
04:00
10°
1013.3 hPa
97%
1.4°
2
Windvlaag: 6.7 m/s
83%
05:00
10°
Voelt als: 9.6°
1013.2 hPa 1.4 mm
100%
1.1°
2
Windvlaag: 6.1 m/s
86%
06:00
10°
1013.2 hPa 1.9 mm
100%
0.3°
2
Windvlaag: 5.8 m/s
89%
07:00
11°
1013.3 hPa 2.4 mm
100%
0.5°
2
Windvlaag: 5.6 m/s
90%
Temp/Neerslag /Baro Onweer/Dauwpunt
    Temp Baro Neerslag Dauwpunt Wind Bewolking  
 05:12     20:39    Daglengte: 15:27 Vandaag
08:00
15°
1023.1 hPa   10.2°
1
82%
11:00
18°
1023.4 hPa   8.3°
2
62%
14:00
19°
1022.8 hPa   5.7°
2
76%
17:00
21°
1021.3 hPa   7.2°
1
11%
20:00
20°
1020.9 hPa   10.9°
1
33%
23:00
17°
1022.0 hPa   13.0°
1
41%
 05:11     20:41    Daglengte: 15:30 Morgen
02:00
15°
1021.6 hPa   11.2°
1
38%
05:00
14°
1021.1 hPa   10.7°
2
62%
08:00
18°
1020.9 hPa   9.8°
1
47%
11:00
21°
1019.4 hPa   10.5°
2
2%
14:00
25°
1016.8 hPa   11.1°
3
38%
17:00
25°
1014.7 hPa   13.2°
2
19%
20:00
22°
1014.4 hPa 0.8 mm 18.7°
1
58%
23:00
18°
1015.4 hPa   16.3°
2
41%
 05:10     20:42    Daglengte: 15:32 Zaterdag 28 Mei
02:00
16°
1015.0 hPa   14.1°
2
36%
05:00
14°
1014.6 hPa   5.6°
3
92%
08:00
14°
1015.6 hPa 2.3 mm 4.2°
3
85%
11:00
12°
1016.5 hPa 7.3 mm -0.0°
3
88%
14:00
13°
1016.1 hPa 3.2 mm -2.6°
3
76%
17:00
14°
1015.1 hPa 1.9 mm -2.2°
3
75%
20:00
12°
1015.7 hPa 3.4 mm 2.0°
1
60%
23:00
11°
1015.8 hPa 1.7 mm 3.2°
1
85%
 05:10     20:43    Daglengte: 15:33 Zondag 29 Mei
02:00
11°
1014.5 hPa 3.3 mm 2.1°
2
78%
05:00
10°
Voelt als: 9.6°
1013.2 hPa 1.4 mm 1.1°
2
86%
08:00
10°
1013.4 hPa 7.0 mm -2.0°
1
90%
11:00
12°
1014.6 hPa 27.1 mm 6.3°
2
1%
14:00
13°
1013.0 hPa 27.7 mm 6.4°
3
1%
17:00
14°
1012.0 hPa 27.8 mm 5.3°
3
1%
20:00
12°
1012.3 hPa 27.8 mm 6.9°
2
1%
23:00
1013.2 hPa 27.8 mm 6.3°
0
1%
 05:09     20:44    Daglengte: 15:35 Maandag 30 Mei
02:00
Voelt als: 7.0°
1012.3 hPa 27.8 mm 5.8°
1
0%
05:00
Voelt als: 6.1°
1012.0 hPa 27.8 mm 5.1°
1
1%
08:00
10°
Voelt als: 9.7°
1012.3 hPa 27.9 mm 7.2°
0
1%
11:00
11°
1012.9 hPa 27.9 mm 8.2°
2
1%
14:00
17°
1011.5 hPa 27.9 mm 8.4°
3
1%
17:00
17°
1011.5 hPa 28.0 mm 7.8°
2
0%
20:00
13°
1013.0 hPa 28.0 mm 9.7°
2
0%
23:00
10°
1015.3 hPa 28.0 mm 8.7°
1
0%
 05:08     20:44    Daglengte: 15:36 Dinsdag 31 Mei
02:00
Voelt als: 9.4°
1015.6 hPa 28.0 mm 8.2°
1
0%
05:00
Voelt als: 8.7°
1016.4 hPa 28.0 mm 7.8°
1
0%
08:00
14°
1016.0 hPa 28.0 mm 9.6°
1
0%
11:00
20°
1015.5 hPa 28.0 mm 10.2°
2
0%
14:00
24°
1014.5 hPa 28.0 mm 8.9°
2
0%
17:00
25°
1013.0 hPa 28.0 mm 8.8°
2
0%
20:00
19°
1012.8 hPa 28.0 mm 13.5°
1
1%
23:00
15°
1014.1 hPa 28.0 mm 12.3°
1
0%
 05:08     20:45    Daglengte: 15:37 Woensdag 01 Jun
02:00
14°
1013.8 hPa 28.0 mm 11.2°
1
0%
05:00
13°
1013.5 hPa 28.0 mm 10.5°
1
1%
08:00
18°
1014.6 hPa 28.0 mm 12.1°
1
1%
11:00
25°
1015.4 hPa 28.0 mm 13.2°
1
1%
14:00
27°
Voelt als: 26.7°
1015.4 hPa 28.0 mm 12.0°
3
0%
17:00
27°
Voelt als: 26.9°
1014.7 hPa 28.0 mm 12.5°
2
0%
20:00
22°
1015.3 hPa 28.0 mm 15.5°
2
0%
23:00
19°
1016.1 hPa 28.0 mm 14.7°
1
1%
 05:07     20:46    Daglengte: 15:39 Donderdag 02 Jun
02:00
17°
1015.3 hPa 28.0 mm 14.4°
1
1%
05:00
16°
1013.6 hPa   14.1°
1
0%
08:00
21°
1013.0 hPa 56.0 mm 15.2°
1
0%
14:00
33°
Voelt als: 31.9°
1011.1 hPa 56.0 mm 12.6°
4
0%
20:00
25°
1011.0 hPa 56.0 mm 17.0°
1
0%
 05:07     20:47    Daglengte: 15:40 Vrijdag 03 Jun
02:00
19°
1012.2 hPa 56.0 mm 14.1°
2
0%
08:00
22°
1016.0 hPa 56.0 mm 15.0°
1
0%
14:00
30°
Voelt als: 29.6°
1014.6 hPa 56.0 mm 14.6°
2
0%
20:00
26°
1011.6 hPa 56.0 mm 15.0°
1
0%
 05:06     20:48    Daglengte: 15:42 Zaterdag 04 Jun
02:00
19°
1012.9 hPa 56.0 mm 15.8°
2
0%
08:00
22°
1016.5 hPa 56.0 mm 14.8°
1
0%
14:00
30°
Voelt als: 29.5°
1015.3 hPa 56.0 mm 14.4°
3
0%
20:00
24°
1015.1 hPa 56.1 mm 17.6°
1
0%
 05:06     20:49    Daglengte: 15:43 Zondag 05 Jun
02:00
14°
1015.3 hPa 1.5 mm 12.5°
1
69%
08:00
16°
1014.8 hPa 0.6 mm 13.4°
0
69%
14:00
21°
1013.0 hPa 1.6 mm 14.1°
1
65%
20:00
17°
1012.5 hPa 3.1 mm 14.5°
0
65%
 05:05     20:50    Daglengte: 15:45 Maandag 06 Jun
02:00
14°
1013.5 hPa 2.7 mm 12.3°
1
71%
08:00
16°
1013.4 hPa 1.3 mm 13.3°
1
69%
14:00
20°
1012.5 hPa 2.7 mm 14.2°
1
66%
20:00
17°
1012.2 hPa 3.4 mm 14.2°
0
77%
 05:05     20:50    Daglengte: 15:45 Dinsdag 07 Jun
02:00
13°
1013.9 hPa 1.2 mm 11.5°
1
66%
08:00
16°
1013.9 hPa 0.5 mm 12.7°
1
63%
14:00
21°
1012.4 hPa 1.1 mm 13.4°
1
53%
20:00
17°
1012.0 hPa 2.2 mm 14.1°
0
71%
 05:05     20:51    Daglengte: 15:46 Woensdag 08 Jun
02:00
13°
1013.5 hPa 1.8 mm 11.5°
2
61%
08:00
16°
1013.9 hPa 0.8 mm 12.6°
1
63%
14:00
21°
1012.7 hPa 1.8 mm 13.9°
1
63%
20:00
17°
1012.6 hPa 2.1 mm 14.1°
0
62%
 05:04     20:52    Daglengte: 15:48 Donderdag 09 Jun
02:00
13°
1014.0 hPa 0.2 mm 11.2°
2
55%
08:00
16°
1014.5 hPa 0.2 mm 12.8°
1
59%
14:00
22°
1013.5 hPa 1.8 mm 13.8°
1
60%
20:00
18°
1013.5 hPa 2.6 mm 14.6°
0
58%
 05:04     20:52    Daglengte: 15:48 Vrijdag 10 Jun
02:00
13°
1015.2 hPa 1.2 mm 12.0°
2
47%
  CAPE Lifted Index Hail Supercell Tornado SRH 3km CL BTM PRES CL TOP PRES Swiss DWD icon SMHI TS
 05:12     20:39    Daglengte: 15:27 Vandaag
08:00 0 J/kg 8.4 K 0 % 0 % 0 % 0 m²/s² 0 0 10.89 3
09:00 0 J/kg 7.9 K 0 % 0 % 0 % 0 m²/s² 0 0 10.81 3
10:00 0 J/kg 7.2 K 0 % 0 % 0 % 0 m²/s² 0 0 10.11 3
11:00 0 J/kg 6.7 K 0 % 0 % 0 % 0 m²/s² 0 0 9.52 3
12:00 0 J/kg 5.4 K 0 % 0 % 0 % 0 m²/s² 0 0 8.31 3
13:00 1 J/kg 4.4 K 0 % 0 % 0 % 0 m²/s² 0 0 7.73 3
14:00 4 J/kg 3.4 K 0 % 0 % 0 % 0 m²/s² 0 0 7.3 3
15:00 4 J/kg 2.5 K 0 % 0 % 0 % 0 m²/s² 0 0 6.61 3
16:00 17 J/kg 1.5 K 0 % 0 % 0 % 0 m²/s² 0 0 4.92 2
17:00 5 J/kg 0.9 K 0 % 0 % 0 % 0 m²/s² 0 0 4.35 2
18:00 26 J/kg 0.4 K 0 % 0 % 0 % 0 m²/s² 0 0 3.07 2
19:00 41 J/kg 0.0 K 0 % 0 % 0 % 0 m²/s² 0 0 2.67 3
20:00 117 J/kg -0.4 K 0 % 0 % 0 % 0 m²/s² 0 0 -0.22 2
21:00 51 J/kg -0.7 K 0 % 0 % 0 % 0 m²/s² 0 0 0.26 2
22:00 41 J/kg -0.6 K 0 % 0 % 0 % 0 m²/s² 0 0 1.62 2
23:00 0 J/kg -0.6 K 0 % 0 % 0 % 0 m²/s² 0 0 1.23 3
 05:11     20:41    Daglengte: 15:30 Morgen
00:00 0 J/kg -0.4 K 0 % 0 % 0 % 0 m²/s² 0 0 0.71 2
01:00 0 J/kg 0.0 K 0 % 0 % 0 % 0 m²/s² 0 0 1.26 3
02:00 0 J/kg 0.7 K 0 % 0 % 0 % 0 m²/s² 0 0 2.29 3
03:00 0 J/kg 1.4 K 0 % 0 % 0 % 0 m²/s² 0 0 3.17 3
04:00 0 J/kg 1.4 K 0 % 0 % 0 % 0 m²/s² 0 0 3.71 3
05:00 0 J/kg 1.4 K 0 % 0 % 0 % 0 m²/s² 0 0 3.83 3
06:00 0 J/kg 1.4 K 0 % 0 % 0 % 0 m²/s² 0 0 3.92 3
07:00 0 J/kg 1.4 K 0 % 0 % 0 % 0 m²/s² 0 0 4.22 3
08:00 0 J/kg 2.3 K 0 % 0 % 0 % 0 m²/s² 0 0 5.21 3
09:00 0 J/kg 2.0 K 0 % 0 % 0 % 0 m²/s² 0 0 5.42 3
10:00 0 J/kg 1.4 K 0 % 0 % 0 % 0 m²/s² 0 0 5.21 2
11:00 2 J/kg 0.8 K 0 % 0 % 0 % 0 m²/s² 0 0 5.24 2
12:00 20 J/kg 0.1 K 0 % 0 % 0 % 0 m²/s² 0 0 4.33 1
13:00 185 J/kg -1.0 K 0 % 0 % 0 % 0 m²/s² 0 0 2.51 1
14:00 488 J/kg -1.8 K 0 % 0 % 0 % 0 m²/s² 0 0 1.2 3
15:00 742 J/kg -2.2 K 0 % 0 % 0 % 0 m²/s² 0 0 0.05 1
16:00 735 J/kg -1.8 K 0 % 0 % 0 % 0 m²/s² 0 0 0.66 3
17:00 568 J/kg -1.9 K 0 % 0 % 0 % 0 m²/s² 0 0 -0.49 3
18:00 200 J/kg -1.1 K 0 % 0 % 0 % 0 m²/s² 0 0 0.1 3
19:00 167 J/kg -0.6 K 0 % 0 % 0 % 0 m²/s² 0 0 0.93 80
20:00 48 J/kg 0.2 K 0 % 0 % 0 % 0 m²/s² 0 0 2.57 3
21:00 0 J/kg 0.2 K 0 % 0 % 0 % 0 m²/s² 0 0 4.1 3
22:00 0 J/kg 0.9 K 0 % 0 % 0 % 0 m²/s² 0 0 3.42 3
23:00 0 J/kg 1.0 K 0 % 0 % 0 % 0 m²/s² 0 0 2.35 3
 05:10     20:42    Daglengte: 15:32 Zaterdag 28 Mei
00:00 0 J/kg 2.1 K 0 % 0 % 0 % 0 m²/s² 0 0 2.76 3
01:00 0 J/kg 2.5 K 0 % 0 % 0 % 0 m²/s² 0 0 3.01 3
02:00 0 J/kg 3.0 K 0 % 0 % 0 % 0 m²/s² 0 0 3.33 80
03:00 0 J/kg 4.2 K 0 % 0 % 0 % 0 m²/s² 0 0 4.2 80
04:00 0 J/kg 5.2 K 0 % 0 % 0 % 0 m²/s² 0 0 5.29 80
05:00 0 J/kg 5.6 K 0 % 0 % 0 % 0 m²/s² 0 0 5.69 3
06:00 0 J/kg 7.2 K 0 % 0 % 0 % 0 m²/s² 0 0 7.23 3
07:00 0 J/kg 8.8 K 0 % 0 % 0 % 0 m²/s² 0 0 9.13 3
08:00 0 J/kg 10.4 K 0 % 0 % 0 % 0 m²/s² 0 0 10.94 3
09:00 0 J/kg 10.7 K 0 % 0 % 0 % 0 m²/s² 0 0 11.33 80
10:00 0 J/kg 10.6 K 0 % 0 % 0 % 0 m²/s² 0 0 11.77 61
11:00 0 J/kg 11.1 K 0 % 0 % 0 % 0 m²/s² 0 0 13.05 61
12:00 0 J/kg 11.6 K 0 % 0 % 0 % 0 m²/s² 0 0 14.78 61
13:00 0 J/kg 11.2 K 0 % 0 % 0 % 0 m²/s² 0 0 15.43 61
14:00 0 J/kg 10.8 K 0 % 0 % 0 % 0 m²/s² 0 0 15.72 61
15:00 0 J/kg 10.9 K 0 % 0 % 0 % 0 m²/s² 0 0 15.67 61
16:00 0 J/kg 10.7 K 0 % 0 % 0 % 0 m²/s² 0 0 15.23 3
17:00 0 J/kg 10.5 K 0 % 0 % 0 % 0 m²/s² 0 0 14.82 61
18:00 0 J/kg 10.2 K 0 % 0 % 0 % 0 m²/s² 0 0 13.71 61
19:00 0 J/kg 10.1 K 0 % 0 % 0 % 0 m²/s² 0 0 13.16 61
20:00 2 J/kg 9.4 K 0 % 0 % 0 % 0 m²/s² 0 0 12.13 61
21:00 0 J/kg 10.2 K 0 % 0 % 0 % 0 m²/s² 0 0 12.84 61
22:00 0 J/kg 9.9 K 0 % 0 % 0 % 0 m²/s² 0 0 11.79 61
23:00 0 J/kg 9.6 K 0 % 0 % 0 % 0 m²/s² 0 0 11.79 61
 05:10     20:43    Daglengte: 15:33 Zondag 29 Mei
00:00 0 J/kg 9.2 K 0 % 0 % 0 % 0 m²/s² 0 0 11.39 61
01:00 0 J/kg 9.2 K 0 % 0 % 0 % 0 m²/s² 0 0 11.6 61
02:00 0 J/kg 8.9 K 0 % 0 % 0 % 0 m²/s² 0 0 11.66 61
03:00 0 J/kg 8.7 K 0 % 0 % 0 % 0 m²/s² 0 0 11.94 3
04:00 0 J/kg 8.4 K 0 % 0 % 0 % 0 m²/s² 0 0 12.09 3
05:00 0 J/kg 8.2 K 0 % 0 % 0 % 0 m²/s² 0 0 12.28 61
06:00 0 J/kg 7.8 K 0 % 0 % 0 % 0 m²/s² 0 0 12.33 61
07:00 0 J/kg 7.4 K 0 % 0 % 0 % 0 m²/s² 0 0 12.14 61
Temp Baro Wind Neerslag
  EWN Forecast EWN WRFDA DWD ICON FMI HIRLAM MET Norway GFS
 05:12     20:39    Daglengte: 15:27 Vandaag
08:00 14.7° 1023.1 hPa 0.6 m/s 0.0 mm 16.6° 1020.9 hPa 1.8 m/s 2.4 mm 15.1° 1023.1 hPa 0.5 m/s -2.0 mm 14.5° 1023.5 hPa 0.5 m/s 0.0 mm 13.2° 1022.8 hPa 1.0 m/s
11:00 18.1° 1023.4 hPa 1.6 m/s 0.0 mm 20.3° 1021.4 hPa 2.2 m/s 7.3 mm 17.9° 1023.6 hPa 0.9 m/s 0.0 mm 19.2° 1023.4 hPa 1.6 m/s 0.0 mm 14.5° 1023.9 hPa 0.5 m/s
14:00 19.4° 1022.8 hPa 1.6 m/s 0.0 mm 22.8° 1020.6 hPa 2.4 m/s 7.3 mm 18.2° 1023.2 hPa 1.1 m/s 0.0 mm 24.1° 1021.6 hPa 2.4 m/s 0.0 mm 20.4° 1022.6 hPa 1.5 m/s
17:00 20.8° 1021.3 hPa 1.4 m/s 0.0 mm 23.7° 1018.8 hPa 1.6 m/s 7.3 mm 20.1° 1021.7 hPa 1.2 m/s 0.0 mm 24.3° 1020.6 hPa 3.0 m/s 0.0 mm 22.4° 1020.4 hPa 1.4 m/s
20:00 19.8° 1020.9 hPa 0.8 m/s 0.0 mm 22.4° 1019.4 hPa 0.6 m/s 7.3 mm 19.1° 1021.3 hPa 0.5 m/s 0.0 mm 22.5° 1020.4 hPa 1.1 m/s 0.0 mm 18.6° 1020.8 hPa 0.7 m/s
23:00 16.9° 1022.0 hPa 1.2 m/s 0.0 mm 17.6° 1021.3 hPa 1.8 m/s 7.4 mm 16.6° 1022.2 hPa 1.1 m/s 0.0 mm 17.2° 1021.6 hPa 1.8 m/s 0.0 mm 15.6° 1022.6 hPa 1.1 m/s
 05:11     20:41    Daglengte: 15:30 Morgen
02:00 15.0° 1021.6 hPa 1.3 m/s 0.0 mm 15.2° 1020.5 hPa 2.2 m/s 7.4 mm 14.9° 1022.3 hPa 1.1 m/s 0.0 mm 15.3° 1021.6 hPa 1.6 m/s 0.0 mm 14.0° 1022.3 hPa 1.1 m/s
05:00 14.2° 1021.1 hPa 1.7 m/s 0.0 mm 14.1° 1019.5 hPa 2.9 m/s 7.4 mm 14.4° 1021.2 hPa 1.1 m/s 0.0 mm 14.2° 1021.8 hPa 1.6 m/s 0.0 mm 13.7° 1021.4 hPa 0.9 m/s
08:00 17.6° 1020.9 hPa 0.6 m/s 0.0 mm 19.4° 1020.0 hPa 2.4 m/s 7.4 mm 16.8° 1021.2 hPa 0.8 m/s 0.0 mm 19.1° 1021.0 hPa 0.4 m/s 0.0 mm 16.4° 1021.3 hPa 0.3 m/s
11:00 21.4° 1019.4 hPa 2.2 m/s 0.0 mm 22.2° 1018.5 hPa 3.0 m/s 7.4 mm 20.9° 1020.1 hPa 0.9 m/s 0.0 mm 23.4° 1019.4 hPa 2.2 m/s 0.0 mm 19.8° 1019.7 hPa 1.1 m/s
14:00 24.7° 1016.8 hPa 2.8 m/s 0.0 mm 24.9° 1016.5 hPa 2.8 m/s 7.4 mm 23.6° 1017.3 hPa 1.9 m/s 0.0 mm 26.8° 1016.8 hPa 2.9 m/s 0.0 mm 24.5° 1017.0 hPa 1.2 m/s
17:00 25.2° 1014.7 hPa 2.1 m/s 0.0 mm 24.8° 1014.4 hPa 1.7 m/s 7.6 mm 24.7° 1014.9 hPa 1.3 m/s 0.0 mm 26.7° 1015.0 hPa 3.3 m/s 0.0 mm 24.4° 1014.6 hPa 1.5 m/s
20:00 21.8° 1014.4 hPa 0.9 m/s 0.8 mm 21.5° 1014.2 hPa 3.0 m/s 8.4 mm 21.2° 1015.8 hPa 1.1 m/s 0.4 mm 21.8° 1014.4 hPa 0.7 m/s 0.0 mm 19.0° 1014.9 hPa 1.4 m/s
23:00 17.8° 1015.4 hPa 2.0 m/s 0.0 mm 16.7° 1016.0 hPa 3.2 m/s 8.5 mm 17.8° 1016.9 hPa 1.5 m/s 0.0 mm 18.2° 1015.3 hPa 1.6 m/s 0.0 mm 15.2° 1016.4 hPa 1.3 m/s
 05:10     20:42    Daglengte: 15:32 Zaterdag 28 Mei
02:00 16.4° 1015.0 hPa 1.7 m/s 0.0 mm 15.3° 1015.1 hPa 4.4 m/s 8.5 mm 16.6° 1016.4 hPa 0.4 m/s 0.8 mm 15.9° 1015.0 hPa 2.6 m/s 0.0 mm 15.0° 1015.5 hPa 0.7 m/s
05:00 14.2° 1014.6 hPa 2.8 m/s 0.0 mm 13.7° 1014.7 hPa 5.9 m/s 8.5 mm 15.0° 1015.5 hPa 1.1 m/s 1.0 mm 13.4° 1014.6 hPa 0.8 m/s
08:00 13.9° 1015.6 hPa 2.7 m/s 2.3 mm 14.2° 1015.7 hPa 5.2 m/s 8.5 mm 14.0° 1016.4 hPa 2.3 m/s 0.1 mm 12.3° 1015.8 hPa 0.9 m/s
11:00 12.3° 1016.5 hPa 3.0 m/s 7.3 mm 16.0° 1015.7 hPa 6.0 m/s 8.5 mm 11.8° 1017.9 hPa 2.7 m/s 2.5 mm 11.3° 1016.8 hPa 0.7 m/s
14:00 13.0° 1016.1 hPa 2.8 m/s 3.2 mm 17.4° 1016.0 hPa 6.2 m/s 8.5 mm 11.8° 1017.5 hPa 2.0 m/s 0.7 mm 11.3° 1018.2 hPa 1.0 m/s
17:00 13.5° 1015.1 hPa 2.6 m/s 1.9 mm 17.3° 1014.9 hPa 6.6 m/s 8.5 mm 11.9° 1016.4 hPa 1.4 m/s 0.6 mm 12.9° 1016.6 hPa 1.3 m/s
20:00 12.2° 1015.7 hPa 1.4 m/s 3.4 mm 14.3° 1015.9 hPa 3.2 m/s 8.5 mm 11.4° 1016.2 hPa 0.9 m/s 0.9 mm 11.8° 1017.1 hPa 0.7 m/s
23:00 11.1° 1015.8 hPa 0.7 m/s 1.7 mm 10.8° 1017.1 hPa 3.7 m/s 8.5 mm 11.1° 1015.8 hPa 0.3 m/s 0.4 mm 10.1° 1018.0 hPa 0.2 m/s
 05:10     20:43    Daglengte: 15:33 Zondag 29 Mei
02:00 10.8° 1014.5 hPa 1.6 m/s 3.3 mm 9.8° 1016.1 hPa 4.5 m/s 8.5 mm 11.0° 1014.1 hPa 0.9 m/s 0.7 mm 9.2° 1017.4 hPa 0.4 m/s
05:00 10.0° 1013.2 hPa 1.5 m/s 1.4 mm 8.8° 1015.0 hPa 4.3 m/s 8.5 mm 10.3° 1012.7 hPa 0.8 m/s 0.6 mm 8.0° 1016.6 hPa 0.7 m/s
08:00 10.5° 1013.4 hPa 1.4 m/s 7.0 mm 13.7° 1014.9 hPa 2.2 m/s 8.5 mm 9.6° 1013.0 hPa 1.2 m/s 6.3 mm 10.6° 1015.9 hPa 0.6 m/s
11:00 12.4° 1014.6 hPa 2.2 m/s 27.1 mm 12.4° 1014.6 hPa 2.2 m/s 27.1 mm
14:00 13.5° 1013.0 hPa 3.0 m/s 27.7 mm 13.5° 1012.9 hPa 3.0 m/s 27.7 mm
17:00 14.2° 1012.0 hPa 2.8 m/s 27.8 mm 14.2° 1012.0 hPa 2.8 m/s 27.8 mm
20:00 11.8° 1012.3 hPa 1.6 m/s 27.8 mm 11.7° 1012.3 hPa 1.6 m/s 27.8 mm
23:00 8.2° 1013.2 hPa 0.4 m/s 27.8 mm 8.2° 1013.2 hPa 0.4 m/s 27.8 mm
 05:09     20:44    Daglengte: 15:35 Maandag 30 Mei
02:00 7.0° 1012.3 hPa 0.9 m/s 27.8 mm 7.0° 1012.3 hPa 0.9 m/s 27.8 mm
05:00 6.2° 1012.0 hPa 0.9 m/s 27.8 mm 6.2° 1012.0 hPa 0.9 m/s 27.8 mm
08:00 9.7° 1012.3 hPa 0.2 m/s 27.9 mm 9.7° 1012.3 hPa 0.2 m/s 27.9 mm
11:00 11.3° 1012.9 hPa 1.6 m/s 27.9 mm 11.3° 1012.9 hPa 1.6 m/s 27.9 mm
14:00 16.6° 1011.5 hPa 2.7 m/s 27.9 mm 16.6° 1011.5 hPa 2.7 m/s 27.9 mm
17:00 17.5° 1011.5 hPa 2.3 m/s 28.0 mm 17.5° 1011.5 hPa 2.3 m/s 28.0 mm
20:00 13.4° 1013.0 hPa 2.0 m/s 28.0 mm 13.4° 1013.0 hPa 2.0 m/s 28.0 mm
23:00 10.1° 1015.3 hPa 0.7 m/s 28.0 mm 10.1° 1015.3 hPa 0.7 m/s 28.0 mm
 05:08     20:44    Daglengte: 15:36 Dinsdag 31 Mei
02:00 9.4° 1015.6 hPa 1.0 m/s 28.0 mm 9.4° 1015.6 hPa 1.0 m/s 28.0 mm
05:00 8.7° 1016.4 hPa 0.9 m/s 28.0 mm 8.7° 1016.4 hPa 0.9 m/s 28.0 mm
08:00 14.1° 1016.0 hPa 0.7 m/s 28.0 mm 14.1° 1016.0 hPa 0.7 m/s 28.0 mm
11:00 20.1° 1015.5 hPa 1.6 m/s 28.0 mm 20.1° 1015.5 hPa 1.6 m/s 28.0 mm
14:00 23.7° 1014.5 hPa 1.9 m/s 28.0 mm 23.7° 1014.5 hPa 1.9 m/s 28.0 mm
17:00 24.5° 1013.0 hPa 1.7 m/s 28.0 mm 24.5° 1013.0 hPa 1.7 m/s 28.0 mm
20:00 19.2° 1012.8 hPa 0.9 m/s 28.0 mm 19.2° 1012.8 hPa 0.9 m/s 28.0 mm
23:00 15.2° 1014.1 hPa 0.8 m/s 28.0 mm 15.2° 1014.1 hPa 0.8 m/s 28.0 mm
 05:08     20:45    Daglengte: 15:37 Woensdag 01 Jun
02:00 13.9° 1013.8 hPa 1.3 m/s 28.0 mm 13.9° 1013.8 hPa 1.3 m/s 28.0 mm
05:00 13.2° 1013.5 hPa 1.3 m/s 28.0 mm 13.2° 1013.5 hPa 1.3 m/s 28.0 mm
08:00 18.5° 1014.6 hPa 1.1 m/s 28.0 mm 18.5° 1014.6 hPa 1.1 m/s 28.0 mm
11:00 25.0° 1015.4 hPa 1.2 m/s 28.0 mm 25.0° 1015.4 hPa 1.2 m/s 28.0 mm
14:00 26.7° 1015.4 hPa 2.6 m/s 28.0 mm 26.7° 1015.4 hPa 2.6 m/s 28.0 mm
17:00 26.9° 1014.7 hPa 2.5 m/s 28.0 mm 26.9° 1014.7 hPa 2.5 m/s 28.0 mm
20:00 21.6° 1015.3 hPa 1.7 m/s 28.0 mm 21.6° 1015.3 hPa 1.7 m/s 28.0 mm
23:00 19.0° 1016.1 hPa 1.1 m/s 28.0 mm 19.0° 1016.1 hPa 1.1 m/s 28.0 mm
 05:07     20:46    Daglengte: 15:39 Donderdag 02 Jun
02:00 17.1° 1015.3 hPa 0.8 m/s 28.0 mm 17.1° 1015.3 hPa 0.8 m/s 28.0 mm
05:00 15.9° 1013.6 hPa 1.2 m/s 28.0 mm 15.9° 1013.6 hPa 1.2 m/s 28.0 mm
08:00 21.0° 1013.0 hPa 1.3 m/s 28.0 mm 21.0° 1013.0 hPa 1.3 m/s 28.0 mm
14:00 33.0° 1011.1 hPa 3.8 m/s 28.0 mm 33.0° 1011.1 hPa 3.8 m/s 28.0 mm
20:00 24.6° 1011.0 hPa 1.4 m/s 28.0 mm 24.6° 1011.0 hPa 1.4 m/s 28.0 mm
 05:07     20:47    Daglengte: 15:40 Vrijdag 03 Jun
02:00 18.5° 1012.2 hPa 1.7 m/s 28.0 mm 18.5° 1012.2 hPa 1.7 m/s 28.0 mm
08:00 22.3° 1016.0 hPa 0.9 m/s 28.0 mm 22.3° 1016.0 hPa 0.9 m/s 28.0 mm
14:00 30.1° 1014.6 hPa 2.2 m/s 28.0 mm 30.1° 1014.6 hPa 2.2 m/s 28.0 mm
20:00 25.5° 1011.6 hPa 1.4 m/s 28.0 mm 25.5° 1011.6 hPa 1.4 m/s 28.0 mm
 05:06     20:48    Daglengte: 15:42 Zaterdag 04 Jun
02:00 19.3° 1012.9 hPa 1.6 m/s 28.0 mm 19.3° 1012.9 hPa 1.6 m/s 28.0 mm
08:00 22.3° 1016.5 hPa 0.8 m/s 28.0 mm 22.3° 1016.5 hPa 0.8 m/s 28.0 mm
14:00 29.9° 1015.3 hPa 2.6 m/s 28.0 mm 29.9° 1015.3 hPa 2.6 m/s 28.0 mm
20:00 24.5° 1015.1 hPa 1.4 m/s 28.0 mm 24.5° 1015.1 hPa 1.4 m/s 28.0 mm
 05:06     20:49    Daglengte: 15:43 Zondag 05 Jun
02:00 14.0° 1015.3 hPa 1.2 m/s 1.5 mm
08:00 16.3° 1014.8 hPa 0.4 m/s 0.6 mm
14:00 21.3° 1013.0 hPa 1.2 m/s 1.6 mm
20:00 17.1° 1012.5 hPa 0.2 m/s 3.1 mm
 05:05     20:50    Daglengte: 15:45 Maandag 06 Jun
02:00 13.6° 1013.5 hPa 1.4 m/s 2.7 mm
08:00 15.8° 1013.4 hPa 0.6 m/s 1.3 mm
14:00 20.2° 1012.5 hPa 0.7 m/s 2.7 mm
20:00 16.7° 1012.2 hPa 0.1 m/s 3.4 mm
 05:05     20:50    Daglengte: 15:45 Dinsdag 07 Jun
02:00 12.8° 1013.9 hPa 1.4 m/s 1.2 mm
08:00 15.5° 1013.9 hPa 0.7 m/s 0.5 mm
14:00 21.1° 1012.4 hPa 1.5 m/s 1.1 mm
20:00 17.0° 1012.0 hPa 0.3 m/s 2.2 mm
 05:05     20:51    Daglengte: 15:46 Woensdag 08 Jun
02:00 12.8° 1013.5 hPa 1.6 m/s 1.8 mm
08:00 15.6° 1013.9 hPa 0.9 m/s 0.8 mm
14:00 20.8° 1012.7 hPa 0.8 m/s 1.8 mm
20:00 17.2° 1012.6 hPa 0.3 m/s 2.1 mm
 05:04     20:52    Daglengte: 15:48 Donderdag 09 Jun
02:00 12.7° 1014.0 hPa 1.6 m/s 0.2 mm
08:00 16.2° 1014.5 hPa 0.7 m/s 0.2 mm
14:00 21.8° 1013.5 hPa 0.9 m/s 1.8 mm
20:00 17.7° 1013.5 hPa 0.4 m/s 2.6 mm
 05:04     20:52    Daglengte: 15:48 Vrijdag 10 Jun
02:00 13.3° 1015.2 hPa 1.5 m/s 1.2 mm
FMI Hirlam - 7.5 km EWN WRFDA - 12 km DWD ICON - 7 km GFS - 25 km Basiskaart






























































Updatetijd (Europe/Amsterdam) Resolutie Lengte Stap
FMI Hirlam 07:00, 13:00, 19:00, 01:00 7.5 km 49h 1h
EWN WRFDA 04:15, 10:15, 16:15, 22:15 12 km 73h 1h
DWD ICON 05:45, 11:45, 17:45, 23:45 7 km 75h 1h
GFS 02:15, 08:15, 14:15, 20:15 25 km 237h 3h
30+ mm
25-30 mm
20-25 mm
15-20 mm
10-15 mm
6-10 mm
4-6 mm
2-4 mm
1-2 mm
0.5-1 mm
0.2-0.5 mm
0.1-0.2 mm
30+ mm
25-30 mm
20-25 mm
15-20 mm
10-15 mm
6-10 mm
4-6 mm
2-4 mm
1-2 mm
0.5-1 mm
0.2-0.5 mm
0.1-0.2 mm
Sneeuwval
Natte sneeuw
Hagel
Vorst
30+ mm
25-30 mm
20-25 mm
15-20 mm
10-15 mm
6-10 mm
4-6 mm
2-4 mm
1-2 mm
0.5-1 mm
0.2-0.5 mm
0.1-0.2 mm
Sneeuwval
Natte sneeuw
Hagel
Vorst
Onweer
50 mm
40 mm
30 mm
26 mm
22 mm
18 mm
14 mm
10 mm
9 mm
8 mm
7 mm
6 mm
5 mm
4.5 mm
4 mm
3.5 mm
3 mm
2.5 mm
2 mm
1.5 mm
1 mm
0.8 mm
0.6 mm
0.4 mm
0.2 mm
0.05 mm
35°
30°
25°
20°
15°
10°
-5°
-10°
-15°
-20°
-25°
-30°
-35°
33> m/s
29 m/s
25 m/s
21 m/s
17 m/s
14 m/s
11 m/s
8 m/s
5 m/s
3 m/s
0 m/s
2600 J/kg
2400 J/kg
2200 J/kg
2000 J/kg
1800 J/kg
1600 J/kg
1400 J/kg
1200 J/kg
1000 J/kg
800 J/kg
600 J/kg
400 J/kg
200 J/kg
70 dBZ
65 dBZ
60 dBZ
55 dBZ
50 dBZ
45 dBZ
40 dBZ
35 dBZ
30 dBZ
25 dBZ
20 dBZ
15 dBZ
10 dBZ
5 dBZ
-1 K
-2 K
-3 K
-4 K
-5 K
-6 K
-7 K
-8 K
-9 K
950 m²/s²
900 m²/s²
850 m²/s²
800 m²/s²
750 m²/s²
700 m²/s²
650 m²/s²
600 m²/s²
550 m²/s²
500 m²/s²
450 m²/s²
400 m²/s²
350 m²/s²
300 m²/s²
250 m²/s²
200 m²/s²
150 m²/s²
100 m²/s²
46 m/s
44 m/s
42 m/s
40 m/s
38 m/s
36 m/s
34 m/s
32 m/s
30 m/s
28 m/s
26 m/s
24 m/s
22 m/s
20 m/s
16 m/s
12 m/s
8 m/s
4 m/s
30 m/s
28 m/s
26 m/s
24 m/s
22 m/s
20 m/s
18 m/s
16 m/s
14 m/s
12 m/s
10 m/s
8 m/s
6 m/s
4 m/s
2 m/s
3.0
2.8
2.6
2.4
2.2
2.0
1.8
1.6
1.4
1.2
1.0
0.8
0.6
0.4
0.2
15
14
13
12
11
10
9
8
7
6
5
4
3
2
1
90%